This demonstration page uses our WeatherBlox Daily Observations layout. Learn more.

Left ArrowRight Arrow

53.62937, 11.41316

Hourly Observations for January 6, 2022

Temp ( °F °C ) Dew Point ( °F °C ) Humidity (%) Winds ( mph kmh ) Pressure ( in mb ) Visibility ( mi km ) Precip ( " mm )
12:20 am 00:20 Partly Cloudy 34 1 28 -2 81 81 NW 8 13 29.71 1006 30 48 N/A
12:50 am 00:50 Mostly Cloudy 34 1 28 -2 81 81 NW 8 13 29.74 1007 30 48 N/A
1:20 am 01:20 Mostly Cloudy 34 1 27 -3 75 75 NW 8 13 29.74 1007 30 48 N/A
1:50 am 01:50 Mostly Clear 32 0 27 -3 80 80 WNW 7 11 29.77 1008 30 48 N/A
2:20 am 02:20 Mostly Clear 32 0 28 -2 87 87 W 6 9 29.77 1008 30 48 N/A
2:50 am 02:50 Mostly Clear 32 0 28 -2 87 87 W 7 11 29.80 1009 30 48 N/A
3:20 am 03:20 Mostly Clear 32 0 28 -2 87 87 W 7 11 29.80 1009 30 48 N/A
3:50 am 03:50 Mostly Cloudy 32 0 27 -3 80 80 W 6 9 29.80 1009 30 48 N/A
4:20 am 04:20 Mostly Cloudy 32 0 27 -3 80 80 W 7 11 29.83 1010 30 48 N/A
4:50 am 04:50 Mostly Cloudy 32 0 27 -3 80 80 W 6 9 29.83 1010 30 48 N/A
5:20 am 05:20 Mostly Cloudy 32 0 28 -2 87 87 WNW 9 15 29.86 1011 30 48 N/A
5:50 am 05:50 Mostly Cloudy 32 0 28 -2 87 87 WNW 7 11 29.86 1011 30 48 N/A
6:20 am 06:20 Mostly Cloudy 32 0 30 -1 93 93 W 7 11 29.86 1011 30 48 N/A
6:50 am 06:50 Mostly Cloudy 32 0 30 -1 93 93 W 5 7 29.89 1012 30 48 N/A
7:20 am 07:20 Mostly Cloudy 32 0 28 -2 87 87 W 5 7 29.92 1013 30 48 N/A
7:50 am 07:50 Mostly Clear 32 0 28 -2 87 87 WSW 6 9 29.92 1013 30 48 N/A
8:20 am 08:20 Mostly Clear 32 0 28 -2 87 87 WSW 6 9 29.92 1013 7 11 N/A
8:50 am 08:50 Mostly Sunny 30 -1 28 -2 93 93 SW 3 6 29.95 1014 30 48 N/A
9:20 am 09:20 Mostly Sunny 30 -1 28 -2 93 93 WSW 6 9 29.95 1014 7 11 N/A
9:50 am 09:50 Mostly Sunny 32 0 28 -2 87 87 WSW 5 7 29.98 1015 7 11 N/A
10:20 am 10:20 Mostly Sunny 34 1 28 -2 81 81 VRB 2 4 29.98 1015 7 11 N/A
10:50 am 10:50 Mostly Sunny 36 2 28 -2 75 75 WSW 3 6 29.98 1015 7 11 N/A
11:20 am 11:20 Mostly Sunny 36 2 30 -1 81 81 SW 3 6 29.98 1015 7 11 N/A
11:50 am 11:50 Mostly Sunny 36 2 30 -1 81 81 W 3 6 29.98 1015 7 11 N/A
12:20 pm 12:20 Mostly Sunny 37 3 30 -1 75 75 WSW 3 6 30.01 1016 7 11 N/A
12:50 pm 12:50 Mostly Sunny 37 3 32 0 81 81 WNW 5 7 30.01 1016 7 11 N/A
1:20 pm 13:20 Mostly Sunny 37 3 32 0 81 81 W 6 9 30.01 1016 7 11 N/A
1:50 pm 13:50 Mostly Sunny 37 3 30 -1 75 75 W 3 6 30.01 1016 7 11 N/A
2:20 pm 14:20 Mostly Sunny 37 3 32 0 81 81 W 3 6 30.01 1016 7 11 N/A
2:50 pm 14:50 Mostly Sunny 37 3 30 -1 75 75 W 5 7 30.01 1016 7 11 N/A
3:20 pm 15:20 Mostly Sunny 36 2 30 -1 81 81 WSW 3 6 30.01 1016 7 11 N/A
3:50 pm 15:50 Mostly Sunny 36 2 30 -1 81 81 VRB 2 4 30.01 1016 7 11 N/A
4:20 pm 16:20 Mostly Clear 34 1 30 -1 87 87 VRB 2 4 30.01 1016 7 11 N/A
4:50 pm 16:50 Mostly Clear 34 1 30 -1 87 87 VRB 2 4 30.01 1016 7 11 N/A
5:20 pm 17:20 Mostly Clear 34 1 30 -1 87 87 S 3 6 30.03 1017 7 11 N/A
5:50 pm 17:50 Mostly Clear 36 2 28 -2 75 75 S 5 7 30.01 1016 30 48 N/A
6:20 pm 18:20 Mostly Cloudy 36 2 28 -2 75 75 SSW 3 6 30.01 1016 30 48 N/A
6:50 pm 18:50 Partly Cloudy 36 2 30 -1 81 81 SSW 3 6 30.01 1016 30 48 N/A
7:20 pm 19:20 Mostly Clear 34 1 30 -1 87 87 SSW 3 6 30.01 1016 30 48 N/A
7:50 pm 19:50 Mostly Clear 34 1 30 -1 87 87 S 5 7 30.01 1016 30 48 N/A
8:20 pm 20:20 Mostly Clear 34 1 32 0 93 93 SSW 5 7 30.01 1016 30 48 N/A
8:50 pm 20:50 Partly Cloudy 34 1 32 0 93 93 S 5 7 30.01 1016 30 48 N/A
9:20 pm 21:20 Mostly Clear 34 1 32 0 93 93 S 5 7 30.01 1016 30 48 N/A
9:50 pm 21:50 Mostly Clear 34 1 32 0 93 93 VRB 6 9 29.98 1015 30 48 N/A
10:20 pm 22:20 Mostly Clear 34 1 30 -1 87 87 SSW 5 7 29.98 1015 30 48 N/A
10:50 pm 22:50 Partly Cloudy 34 1 32 0 93 93 SSW 5 7 29.98 1015 30 48 N/A
11:20 pm 23:20 Mostly Cloudy 34 1 32 0 93 93 S 6 9 29.98 1015 30 48 N/A

Powered by AerisWeather